[[{"header":{"parameterUnit":"m.s-1","parameterCategory":1,"la1":30.2991,"la2":30.254,"lo1":-89.0895,"lo2":-89.0444,"dy":0.0017,"dx":0.0017,"nx":28,"ny":28,"refTime":"2025-06-20T03:00:00:Z","depth":0,"parameterNumber":2,"parameterNumberName":"U-component_of_WINDS"},"data":[0,0,0,0,0,0,0,0,0,0,0,0,0,0,0,0,0,0,0,0,0,0,0,0,0,0,0,0,0,0,0,0,0,0,0,0,0,0,0,0,0,0,0,0,0,0,0,0,0,0,0,0,0,0,0,0,0,0,-0.9338,-0.9338,0,-0.9317,-0.9317,-0.9316,-0.926,-0.9258,-0.9257,-0.9256,-0.9235,-0.9236,-0.9236,0,0,0,0,0,0,0,0,0,0,0,0,0,-0.933,-0.9331,-0.9338,-0.9338,-0.9337,-0.9317,-0.9317,-0.9316,-0.926,-0.9258,-0.9257,-0.9255,-0.9235,-0.9236,-0.9236,0,0,0,0,0,0,0,0,0,0,0,0,0,-0.9324,-0.9331,-0.9338,-0.9307,-0.9304,-0.9317,-0.9317,-0.9316,-0.926,-0.9258,-0.9256,-0.9255,-0.9235,-0.9236,-0.9236,-0.9279,0,0,-0.9239,-0.924,0,0,0,0,0,0,0,0,-0.9324,-0.9324,-0.9311,-0.9309,-0.9305,-0.9289,-0.9306,-0.9304,-0.9261,-0.9277,-0.9256,-0.9254,-0.9255,-0.9254,-0.9254,-0.9278,-0.9277,-0.9239,-0.924,-0.924,-0.924,0,0,0,0,0,0,0,-0.9325,-0.9325,-0.9329,-0.9311,-0.9308,-0.9294,-0.9291,-0.9305,-0.9276,-0.9275,-0.9271,-0.9269,-0.9253,-0.9253,-0.9253,-0.9276,-0.9239,-0.924,-0.9241,-0.9241,-0.9334,-0.9336,0,0,0,0,0,0,-0.933,-0.9326,-0.933,-0.9329,-0.9311,-0.9296,-0.9292,-0.9296,-0.9276,-0.9271,-0.9271,-0.9267,-0.9253,-0.9252,-0.9252,-0.93,-0.924,-0.9241,-0.9241,-0.9332,-0.9335,-0.9337,0,0,0,0,0,0,-0.933,-0.9331,-0.9331,-0.9326,-0.9325,-0.9298,-0.9302,-0.9297,-0.9297,-0.9273,-0.9267,-0.9277,-0.9251,-0.9251,-0.9272,-0.9298,-0.9241,-0.9242,-0.933,-0.9333,-0.9336,-0.9396,0,0,0,0,0,0,-0.933,-0.9331,-0.9346,-0.9327,-0.9326,-0.9351,-0.9304,-0.9298,-0.9299,-0.9293,-0.9277,-0.9272,-0.925,-0.9271,-0.9273,-0.9298,-0.9243,-0.9328,-0.9331,-0.9335,-0.9391,-0.94,-0.9408,0,0,0,0,0,-0.933,-0.9364,-0.9347,-0.9348,-0.9344,-0.9353,-0.9352,-0.9325,-0.9301,-0.9316,-0.9301,-0.9273,-0.9296,-0.9274,-0.9276,-0.9301,-0.9326,-0.933,-0.9335,-0.9388,-0.9399,-0.9408,0,0,0,0,0,0,-0.9386,-0.9361,-0.9342,-0.9371,-0.9365,-0.9343,-0.9362,-0.9338,-0.9339,-0.9333,-0.93,-0.9297,-0.9324,-0.9315,-0.9292,-0.9342,-0.9306,-0.9311,-0.9346,-0.9356,-0.9364,-0.9365,-0.9244,0,0,0,0,0,-0.9402,-0.9412,-0.9389,-0.9417,-0.9414,-0.9389,-0.9392,-0.9372,-0.9364,-0.9361,-0.9347,-0.9341,-0.9347,-0.9351,-0.9355,-0.9391,-0.9386,-0.9409,-0.9418,-0.9425,-0.9429,-0.9447,-0.9457,-0.9351,-0.9351,-0.9351,0,0,-0.9435,-0.9422,-0.943,-0.9428,-0.942,-0.9431,-0.9387,-0.94,-0.9407,-0.9363,-0.9382,-0.9373,-0.9364,-0.9392,-0.9404,-0.9386,-0.9457,-0.943,-0.9436,-0.9436,-0.9453,-0.9463,-0.9472,-0.9354,-0.9354,-0.9353,0,0,-0.95,-0.9492,-0.9514,-0.9508,-0.9498,-0.9481,-0.9487,-0.9469,-0.9461,-0.948,-0.9447,-0.9456,-0.9467,-0.9462,-0.9461,-0.9527,-0.9501,-0.9529,-0.9572,-0.959,-0.9599,-0.9606,-0.9629,-0.9637,-0.9534,-0.9534,-0.9534,0,-0.9542,-0.9556,-0.9528,-0.9543,-0.9543,-0.9505,-0.9527,-0.9523,-0.9515,-0.9516,-0.9496,-0.9509,-0.95,-0.9527,-0.9544,-0.9544,-0.955,-0.953,-0.96,-0.9607,-0.9613,-0.9634,-0.9643,-0.9537,-0.9537,-0.9536,-0.9536,0,-0.9608,-0.9619,-0.9638,-0.9631,-0.9634,-0.9653,-0.9628,-0.9634,-0.9615,-0.9601,-0.9621,-0.961,-0.9611,-0.9616,-0.9597,-0.9641,-0.963,-0.9606,-0.9569,-0.9627,-0.9646,-0.9655,-0.9542,-0.9541,-0.954,-0.9539,0,0,-0.9705,-0.9685,-0.9692,-0.9689,-0.9676,-0.9684,-0.9702,-0.9703,-0.9709,-0.9706,-0.972,-0.9731,-0.9708,-0.9707,-0.9688,-0.9704,-0.9756,-0.9677,-0.9676,-0.9691,-0.9804,-0.9821,-0.9831,-0.974,-0.9741,-0.9742,-0.9804,0,-0.9766,-0.9794,-0.9771,-0.9804,-0.9813,-0.9778,-0.9794,-0.9788,-0.9776,-0.9783,-0.9769,-0.9777,-0.9747,-0.9746,-0.9761,-0.9747,-0.9778,-0.9742,-0.9752,-0.9753,-0.9754,-0.9841,-0.986,-0.9918,-0.9812,-0.9813,-0.9814,0,-0.9839,-0.984,-0.9874,-0.986,-0.9863,-0.9877,-0.9877,-0.9885,-0.9878,-0.9868,-0.9868,-0.9844,-0.9861,-0.9827,-0.985,-0.9827,-0.983,-0.9824,-0.9825,-0.9824,-0.9786,-0.9841,-0.9936,-0.9945,-0.9826,-0.9825,-0.9824,0,-0.9906,-0.9915,-0.9937,-0.9936,-0.992,-0.9931,-0.9925,-0.9917,-0.9919,-0.992,-0.9921,-0.9924,-0.9925,-0.9928,-0.9906,-0.9883,-0.9932,-0.9896,-0.9924,-0.9925,-0.9934,-0.9934,-1.003,-0.9939,-0.9939,-0.9939,-0.9938,0,-0.9975,-0.9997,-0.9967,-0.998,-1.0004,-0.9978,-1.0002,-0.9993,-0.9986,-0.9997,-0.9968,-0.9979,-0.995,-0.9958,-0.9942,-0.9963,-0.9964,-0.9957,-0.9952,-0.9959,-0.9959,-0.9959,-0.9954,-0.9941,-0.994,-0.994,-0.994,0,-1.0052,-1.0033,-1.0054,-1.0039,-1.0035,-1.0054,-1.004,-1.0052,-1.0039,-1.0053,-1.0055,-1.0034,-1.0043,-1.0022,-1.0028,-1.0016,-1.0047,-1.0037,-1.005,-1.0046,-1.0075,-1.0072,-1.0173,-1.0184,-1.0087,-1.0088,-1.0089,0,-1.0097,-1.0113,-1.01,-1.0105,-1.0101,-1.011,-1.0113,-1.0088,-1.0093,-1.0087,-1.01,-1.0106,-1.011,-1.0125,-1.011,-1.0115,-1.0103,-1.0138,-1.0103,-1.011,-1.0103,-1.0101,-1.0103,-1.0145,-1.0146,-1.0147,-1.0148,0,-1.0177,-1.0167,-1.0173,-1.0175,-1.018,-1.0181,-1.0179,-1.0186,-1.016,-1.0166,-1.0175,-1.0178,-1.0184,-1.019,-1.0192,-1.0186,-1.0163,-1.0159,-1.0166,-1.0172,-1.0179,-1.0175,-1.0068,-1.0157,-1.0156,-1.0155,-1.0155,-1.0154,-1.0238,-1.0252,-1.0244,-1.0252,-1.0249,-1.0249,-1.0259,-1.0248,-1.0255,-1.0258,-1.0243,-1.0255,-1.0249,-1.0249,-1.0246,-1.0255,-1.0239,-1.0249,-1.0251,-1.0253,-1.0258,-1.0179,-1.0255,-1.0255,-1.0255,-1.0255,-1.0254,0,-1.0317,-1.0311,-1.0318,-1.0318,-1.0324,-1.0303,-1.0301,-1.0307,-1.0318,-1.0315,-1.032,-1.033,-1.0337,-1.0324,-1.0328,-1.0338,-1.0328,-1.034,-1.0338,-1.0338,-1.0272,-1.0266,-1.0349,-1.0349,-1.0349,-1.0349,-1.0349,-1.0349,-1.0358,-1.0379,-1.0369,-1.0388,-1.0383,-1.0394,-1.0395,-1.0395,-1.0392,-1.0405,-1.0411,-1.0403,-1.0396,-1.04,-1.0406,-1.0402,-1.0404,-1.042,-1.0413,-1.0351,-1.0342,-1.0333,-1.0327,-1.0421,-1.0422,-1.0477,-1.0477,-1.0478]},{"header":{"parameterUnit":"m.s-1","parameterCategory":1,"la1":30.2991,"la2":30.254,"lo1":-89.0895,"lo2":-89.0444,"dy":0.0017,"dx":0.0017,"nx":28,"ny":28,"refTime":"2025-06-20T03:00:00:Z","depth":0,"parameterNumber":3,"parameterNumberName":"V-component_of_WINDS"},"data":[0,0,0,0,0,0,0,0,0,0,0,0,0,0,0,0,0,0,0,0,0,0,0,0,0,0,0,0,0,0,0,0,0,0,0,0,0,0,0,0,0,0,0,0,0,0,0,0,0,0,0,0,0,0,0,0,0,0,2.493,2.493,0,2.4936,2.4936,2.4936,2.4961,2.4962,2.4963,2.4963,2.4967,2.4967,2.4966,0,0,0,0,0,0,0,0,0,0,0,0,0,2.4938,2.4937,2.493,2.493,2.493,2.4936,2.4936,2.4936,2.4961,2.4962,2.4963,2.4963,2.4967,2.4967,2.4966,0,0,0,0,0,0,0,0,0,0,0,0,0,2.4938,2.4937,2.493,2.4944,2.4945,2.4936,2.4936,2.4936,2.4961,2.4962,2.4963,2.4964,2.4967,2.4967,2.4966,2.4944,0,0,2.4964,2.4964,0,0,0,0,0,0,0,0,2.4938,2.4938,2.4942,2.4943,2.4944,2.4949,2.494,2.4939,2.4961,2.4955,2.4963,2.4964,2.496,2.496,2.4959,2.4945,2.4945,2.4964,2.4964,2.4963,2.4963,0,0,0,0,0,0,0,2.4938,2.4938,2.4933,2.4942,2.4943,2.4948,2.4949,2.494,2.4952,2.4956,2.4957,2.4958,2.4961,2.496,2.496,2.4945,2.4964,2.4964,2.4963,2.4963,2.4911,2.491,0,0,0,0,0,0,2.4936,2.4937,2.4932,2.4933,2.4943,2.4948,2.4949,2.4947,2.4953,2.4955,2.4957,2.4959,2.4961,2.496,2.496,2.4933,2.4963,2.4963,2.4962,2.4912,2.491,2.4909,0,0,0,0,0,0,2.4936,2.4936,2.4932,2.4936,2.4936,2.4947,2.4944,2.4946,2.4945,2.4954,2.4956,2.4954,2.4961,2.4961,2.4948,2.4934,2.4962,2.4962,2.4913,2.4911,2.491,2.488,0,0,0,0,0,0,2.4936,2.4935,2.4928,2.4935,2.4935,2.4921,2.4943,2.4946,2.4944,2.4947,2.4951,2.4953,2.4962,2.4949,2.4947,2.4933,2.4961,2.4914,2.4912,2.491,2.4883,2.4878,2.4874,0,0,0,0,0,2.4937,2.4919,2.4927,2.4927,2.4926,2.492,2.492,2.4931,2.4943,2.4935,2.494,2.4953,2.4936,2.4947,2.4946,2.4931,2.4915,2.4913,2.491,2.4885,2.4879,2.4874,0,0,0,0,0,0,2.4909,2.4921,2.493,2.4914,2.4916,2.4924,2.4914,2.4925,2.4923,2.4925,2.4939,2.494,2.4924,2.4927,2.4939,2.491,2.4927,2.4925,2.4908,2.4903,2.4899,2.4898,2.4961,0,0,0,0,0,2.4902,2.4897,2.4906,2.4892,2.4892,2.4903,2.4901,2.4909,2.4911,2.4912,2.4917,2.4917,2.4912,2.4908,2.4904,2.4884,2.4884,2.4873,2.4869,2.4866,2.4862,2.485,2.4845,2.4902,2.4902,2.4902,0,0,2.4886,2.4891,2.4887,2.4886,2.4889,2.4882,2.4903,2.4896,2.489,2.491,2.4898,2.4902,2.4903,2.4886,2.4879,2.4888,2.4847,2.4863,2.486,2.4859,2.4847,2.4842,2.4837,2.49,2.4901,2.4901,0,0,2.4852,2.4857,2.4844,2.4846,2.485,2.4857,2.4854,2.486,2.4863,2.4851,2.4866,2.486,2.4851,2.4851,2.4849,2.4815,2.4826,2.4814,2.4791,2.4779,2.4774,2.477,2.4756,2.475,2.4811,2.4811,2.4811,0,2.4831,2.4822,2.4836,2.4827,2.4826,2.4845,2.4831,2.4832,2.4834,2.4832,2.4842,2.4831,2.4833,2.4815,2.4807,2.4806,2.4802,2.4812,2.4774,2.477,2.4766,2.4753,2.4747,2.4809,2.481,2.481,2.481,0,2.4795,2.4789,2.4778,2.4779,2.4777,2.4766,2.4777,2.4773,2.4782,2.4788,2.4774,2.4778,2.4774,2.4771,2.478,2.4754,2.4759,2.4772,2.4789,2.4759,2.4746,2.4741,2.4807,2.4807,2.4808,2.4808,0,0,2.4743,2.4753,2.4748,2.4748,2.4754,2.4748,2.4737,2.4734,2.4729,2.473,2.472,2.4712,2.4723,2.4721,2.473,2.472,2.469,2.4733,2.4733,2.4723,2.4659,2.4648,2.4642,2.4698,2.4697,2.4696,2.4658,0,2.4709,2.4692,2.4704,2.4684,2.4677,2.4695,2.4685,2.4687,2.4692,2.4686,2.4692,2.4685,2.4701,2.47,2.4691,2.4695,2.4677,2.4699,2.4686,2.4686,2.4683,2.4635,2.4624,2.4587,2.4653,2.4653,2.4652,0,2.4667,2.4666,2.4645,2.4651,2.4648,2.4639,2.4637,2.4631,2.4633,2.4637,2.4635,2.4647,2.4635,2.4654,2.4637,2.4651,2.4647,2.4649,2.4647,2.4645,2.4665,2.4629,2.4576,2.457,2.4645,2.4645,2.4646,0,2.4629,2.4622,2.4608,2.4608,2.4615,2.4608,2.461,2.4613,2.4609,2.4607,2.4605,2.4601,2.4598,2.4594,2.4603,2.4617,2.4584,2.4604,2.4585,2.4585,2.4576,2.4576,2.4519,2.4577,2.4577,2.4577,2.4577,0,2.4588,2.4574,2.4591,2.4582,2.4566,2.4581,2.4564,2.4568,2.457,2.4562,2.4578,2.4569,2.4583,2.4575,2.4583,2.4566,2.4565,2.4567,2.4568,2.4564,2.4563,2.4559,2.4561,2.4576,2.4576,2.4576,2.4577,0,2.4541,2.4552,2.4538,2.4546,2.4547,2.4535,2.4541,2.4532,2.4539,2.4528,2.4526,2.4536,2.4527,2.4537,2.4529,2.4534,2.451,2.4517,2.451,2.4511,2.449,2.4491,2.4427,2.4419,2.4484,2.4484,2.4483,0,2.4514,2.4503,2.451,2.4505,2.4507,2.45,2.4497,2.4511,2.4506,2.4507,2.4498,2.4491,2.4486,2.4471,2.4477,2.447,2.4475,2.4454,2.4474,2.447,2.4472,2.4471,2.4469,2.4448,2.4448,2.4447,2.4447,0,2.4462,2.4468,2.4464,2.446,2.4456,2.4455,2.4454,2.4449,2.4463,2.4457,2.4449,2.4446,2.4438,2.443,2.4425,2.4426,2.4437,2.444,2.4435,2.4429,2.4424,2.4424,2.4495,2.4441,2.4442,2.4442,2.4442,2.4443,2.4422,2.4413,2.4416,2.441,2.4411,2.441,2.4402,2.4407,2.4401,2.4396,2.4405,2.4394,2.4395,2.439,2.4389,2.438,2.4389,2.4382,2.438,2.4377,2.4373,2.4428,2.4379,2.438,2.438,2.438,2.438,0,2.4369,2.4372,2.4367,2.4365,2.436,2.4374,2.4373,2.4367,2.4358,2.4358,2.4353,2.4343,2.4335,2.434,2.4333,2.4325,2.433,2.4322,2.4321,2.4321,2.4367,2.4371,2.4318,2.4318,2.4318,2.4318,2.4318,2.4318,2.4341,2.4326,2.4332,2.4317,2.432,2.431,2.4308,2.4306,2.4307,2.4295,2.4289,2.4293,2.4294,2.4287,2.428,2.4282,2.4277,2.4267,2.427,2.4312,2.4318,2.4324,2.4327,2.4267,2.4267,2.4225,2.4225,2.4224]}]]